When you browse on this site, cookies collect data to enhance your experience and personalize the content and advertising you see.
Visit our Privacy Policy to learn more. By continuing to use the site, you agree to this use of cookies and data.

Hourly Weather Madyar

Today, 10 July, Friday

Time Temperature Precipitation Wind Pressure Humidity
00:00 +24°C° 0 mm 1 mps 750 mmHg 88%
01:00 +24°C° 0 mm 1 mps 750 mmHg 89%
02:00 +24°C° 0 mm 1 mps 750 mmHg 89%
03:00 +23°C° 0 mm 1 mps 750 mmHg 89%
04:00 +23°C° 0 mm 1 mps 750 mmHg 89%
05:00 +24°C° 0 mm 2 mps 750 mmHg 87%
06:00 +25°C° 0 mm 2 mps 750 mmHg 84%
07:00 +26°C° 0 mm 2 mps 750 mmHg 82%
08:00 +28°C° 0.3 mm 2 mps 750 mmHg 78%
09:00 +29°C° 0.3 mm 2 mps 750 mmHg 73%
10:00 +30°C° 0 mm 2 mps 750 mmHg 69%
11:00 +31°C° 0.1 mm 3 mps 750 mmHg 64%
12:00 +33°C° 0.1 mm 3 mps 750 mmHg 59%
13:00 +34°C° 0.1 mm 3 mps 750 mmHg 55%
14:00 +34°C° 0 mm 3 mps 750 mmHg 56%
15:00 +33°C° 0 mm 3 mps 750 mmHg 57%
16:00 +33°C° 0 mm 3 mps 750 mmHg 58%
17:00 +30°C° 1 mm 4 mps 750 mmHg 66%
18:00 +28°C° 1 mm 4 mps 750 mmHg 74%
19:00 +27°C° 1 mm 4 mps 751 mmHg 82%
20:00 +25°C° 0.2 mm 4 mps 751 mmHg 85%
21:00 +23°C° 0.2 mm 4 mps 751 mmHg 88%
22:00 +21°C° 0.2 mm 4 mps 751 mmHg 91%
23:00 +21°C° 0.4 mm 3 mps 751 mmHg 92%

Tomorrow, 11 July, Saturday

Time Temperature Precipitation Wind Pressure Humidity
00:00 +20°C° 0.4 mm 3 mps 751 mmHg 93%
01:00 +20°C° 0.4 mm 3 mps 751 mmHg 94%
02:00 +19°C° 0.3 mm 3 mps 752 mmHg 95%
03:00 +19°C° 0.3 mm 3 mps 752 mmHg 95%
04:00 +19°C° 0.3 mm 3 mps 753 mmHg 96%
05:00 +19°C° 0.2 mm 3 mps 753 mmHg 95%
06:00 +19°C° 0.2 mm 3 mps 753 mmHg 93%
07:00 +20°C° 0.2 mm 4 mps 753 mmHg 92%
08:00 +21°C° 0 mm 3 mps 753 mmHg 87%
09:00 +22°C° 0 mm 3 mps 753 mmHg 81%
10:00 +24°C° 0 mm 3 mps 753 mmHg 75%
11:00 +23°C° 0 mm 4 mps 753 mmHg 71%
12:00 +25°C° 0 mm 4 mps 753 mmHg 67%
13:00 +26°C° 0 mm 4 mps 753 mmHg 63%
14:00 +26°C° 0 mm 4 mps 753 mmHg 61%
15:00 +26°C° 0 mm 4 mps 754 mmHg 59%
16:00 +27°C° 0 mm 4 mps 754 mmHg 57%
17:00 +26°C° 0 mm 3 mps 753 mmHg 61%
18:00 +26°C° 0 mm 3 mps 753 mmHg 65%
19:00 +25°C° 0 mm 2 mps 753 mmHg 69%
20:00 +23°C° 0 mm 2 mps 754 mmHg 71%
21:00 +21°C° 0 mm 2 mps 754 mmHg 73%
22:00 +19°C° 0 mm 2 mps 754 mmHg 76%
23:00 +18°C° 0 mm 2 mps 754 mmHg 78%

Day after tomorrow, 12 July, Sunday

Time Temperature Precipitation Wind Pressure Humidity
00:00 +19°C° 0 mm 1 mps 754 mmHg 81%
01:00 +18°C° 0 mm 1 mps 754 mmHg 83%
02:00 +16°C° 0 mm 1 mps 754 mmHg 84%
03:00 +16°C° 0 mm 1 mps 755 mmHg 84%
04:00 +15°C° 0 mm 0 mps 755 mmHg 85%
05:00 +16°C° 0 mm 0 mps 755 mmHg 82%
06:00 +17°C° 0 mm 0 mps 755 mmHg 78%
07:00 +19°C° 0 mm 0 mps 754 mmHg 74%
08:00 +20°C° 0 mm 0 mps 755 mmHg 70%
09:00 +21°C° 0 mm 0 mps 755 mmHg 66%
10:00 +23°C° 0 mm 0 mps 755 mmHg 62%
11:00 +26°C° 0 mm 1 mps 755 mmHg 58%
12:00 +26°C° 0 mm 1 mps 754 mmHg 54%
13:00 +27°C° 0 mm 1 mps 754 mmHg 51%
14:00 +27°C° 0 mm 1 mps 754 mmHg 51%
15:00 +27°C° 0 mm 1 mps 754 mmHg 51%
16:00 +28°C° 0 mm 1 mps 754 mmHg 51%
17:00 +27°C° 0 mm 1 mps 754 mmHg 56%
18:00 +27°C° 0 mm 1 mps 753 mmHg 62%
19:00 +26°C° 0 mm 1 mps 753 mmHg 67%
20:00 +24°C° 0 mm 1 mps 753 mmHg 71%
21:00 +20°C° 0 mm 0 mps 753 mmHg 75%
22:00 +18°C° 0 mm 0 mps 753 mmHg 79%
23:00 +18°C° 0 mm 0 mps 753 mmHg 80%

13 July, Monday

Time Temperature Precipitation Wind Pressure Humidity
00:00 +17°C° 0 mm 0 mps 753 mmHg 81%
01:00 +17°C° 0 mm 0 mps 753 mmHg 83%
02:00 +17°C° 0 mm 0 mps 753 mmHg 83%
03:00 +16°C° 0 mm 0 mps 753 mmHg 84%
04:00 +16°C° 0 mm 0 mps 753 mmHg 85%
05:00 +17°C° 0 mm 0 mps 753 mmHg 82%
06:00 +19°C° 0 mm 0 mps 752 mmHg 79%
07:00 +22°C° 0 mm 1 mps 752 mmHg 76%
08:00 +23°C° 0 mm 1 mps 752 mmHg 72%
09:00 +25°C° 0 mm 1 mps 752 mmHg 68%
10:00 +26°C° 0 mm 1 mps 752 mmHg 65%
11:00 +26°C° 0 mm 2 mps 752 mmHg 62%
12:00 +27°C° 0 mm 2 mps 752 mmHg 59%
13:00 +28°C° 0 mm 2 mps 751 mmHg 56%
14:00 +28°C° 0 mm 2 mps 751 mmHg 56%
15:00 +28°C° 0 mm 2 mps 751 mmHg 55%
16:00 +29°C° 0 mm 2 mps 751 mmHg 55%
17:00 +28°C° 0 mm 2 mps 750 mmHg 60%
18:00 +27°C° 0 mm 2 mps 750 mmHg 64%
19:00 +27°C° 0 mm 2 mps 750 mmHg 69%
20:00 +25°C° 0 mm 2 mps 750 mmHg 73%
21:00 +23°C° 0 mm 2 mps 750 mmHg 76%
22:00 +21°C° 0 mm 2 mps 750 mmHg 80%
23:00 +20°C° 0.2 mm 2 mps 750 mmHg 80%

14 July, Tuesday

Time Temperature Precipitation Wind Pressure Humidity
00:00 +20°C° 0.2 mm 2 mps 750 mmHg 80%
01:00 +19°C° 0.2 mm 2 mps 750 mmHg 81%
02:00 +19°C° 0.6 mm 2 mps 750 mmHg 84%
03:00 +19°C° 0.6 mm 2 mps 750 mmHg 87%
04:00 +19°C° 0.6 mm 2 mps 750 mmHg 90%
05:00 +19°C° 0.5 mm 3 mps 750 mmHg 88%
06:00 +20°C° 0.5 mm 4 mps 750 mmHg 86%
07:00 +21°C° 0.5 mm 4 mps 750 mmHg 84%
08:00 +23°C° 0 mm 4 mps 750 mmHg 80%
09:00 +25°C° 0 mm 5 mps 750 mmHg 75%
10:00 +27°C° 0 mm 5 mps 750 mmHg 71%
11:00 +29°C° 0 mm 5 mps 750 mmHg 68%
12:00 +30°C° 0 mm 5 mps 749 mmHg 65%
13:00 +32°C° 0 mm 5 mps 749 mmHg 62%
14:00 +33°C° 0 mm 5 mps 749 mmHg 61%
15:00 +33°C° 0 mm 5 mps 749 mmHg 61%
16:00 +33°C° 0 mm 5 mps 749 mmHg 61%
17:00 +32°C° 0 mm 5 mps 749 mmHg 65%
18:00 +30°C° 0 mm 4 mps 748 mmHg 69%
19:00 +29°C° 0 mm 4 mps 748 mmHg 73%
20:00 +27°C° 0 mm 4 mps 748 mmHg 75%
21:00 +26°C° 0 mm 4 mps 748 mmHg 78%
22:00 +23°C° 0 mm 4 mps 748 mmHg 80%
23:00 +23°C° 0 mm 4 mps 748 mmHg 79%

15 July, Wednesday

Time Temperature Precipitation Wind Pressure Humidity
00:00 +22°C° 0 mm 4 mps 747 mmHg 79%
01:00 +22°C° 0 mm 4 mps 747 mmHg 78%
02:00 +21°C° 0 mm 4 mps 747 mmHg 77%
03:00 +21°C° 0 mm 3 mps 747 mmHg 77%
04:00 +21°C° 0 mm 3 mps 747 mmHg 76%
05:00 +21°C° 0 mm 3 mps 747 mmHg 75%
06:00 +22°C° 0 mm 4 mps 747 mmHg 74%
07:00 +22°C° 0 mm 4 mps 747 mmHg 73%
08:00 +23°C° 0 mm 4 mps 746 mmHg 70%
09:00 +26°C° 0 mm 5 mps 746 mmHg 68%
10:00 +27°C° 0 mm 5 mps 746 mmHg 65%
11:00 +28°C° 0 mm 5 mps 746 mmHg 64%
12:00 +29°C° 0 mm 5 mps 746 mmHg 63%
13:00 +30°C° 0 mm 5 mps 746 mmHg 62%
14:00 +29°C° 0 mm 4 mps 746 mmHg 65%
15:00 +29°C° 0 mm 4 mps 746 mmHg 69%
16:00 +28°C° 0 mm 3 mps 746 mmHg 73%
17:00 +28°C° 0 mm 2 mps 746 mmHg 74%
18:00 +27°C° 0 mm 1 mps 745 mmHg 76%
19:00 +27°C° 0 mm 1 mps 745 mmHg 77%
20:00 +26°C° 0.1 mm 1 mps 745 mmHg 79%
21:00 +25°C° 0.1 mm 1 mps 745 mmHg 82%
22:00 +24°C° 0.1 mm 1 mps 745 mmHg 84%
23:00 +23°C° 0.4 mm 1 mps 745 mmHg 85%
Show more